Time,TemperatureF,DewpointF,PressureIn,WindDirection,WindDirectionDegrees,WindSpeedMPH,WindSpeedGustMPH,Humidity,HourlyPrecipIn,Conditions,Clouds,dailyrainin,SolarRadiationWatts/m^2,SoftwareType,DateUTC
2013-09-12 00:04:00,71.6,67.9,30.05,WSW,250,3.0,4.0,88,0.00,,,0.00,0,Wunderground v.1.15,2013-09-12 05:04:00,
2013-09-12 00:05:00,71.6,67.9,30.05,WSW,246,3.0,4.0,88,0.00,,,0.00,0,Wunderground v.1.15,2013-09-12 05:05:00,
2013-09-12 00:11:00,71.7,68.0,30.05,WSW,243,4.0,5.0,88,0.00,,,0.00,0,Wunderground v.1.15,2013-09-12 05:11:00,
2013-09-12 00:16:00,71.6,68.2,30.05,WSW,245,4.0,5.0,89,0.00,,,0.00,0,Wunderground v.1.15,2013-09-12 05:16:00,
2013-09-12 00:21:00,71.5,68.4,30.05,WSW,254,4.0,5.0,90,0.00,,,0.00,0,Wunderground v.1.15,2013-09-12 05:21:00,
2013-09-12 00:27:00,71.6,68.8,30.05,SW,232,4.0,5.0,91,0.00,,,0.00,0,Wunderground v.1.15,2013-09-12 05:27:00,
2013-09-12 00:32:00,71.6,68.8,30.05,WSW,247,4.0,5.0,91,0.00,,,0.00,0,Wunderground v.1.15,2013-09-12 05:32:00,
2013-09-12 00:37:00,71.7,69.3,30.05,West,272,4.0,6.0,92,0.00,,,0.00,0,Wunderground v.1.15,2013-09-12 05:37:00,
2013-09-12 00:42:00,71.6,69.2,30.05,SW,236,4.0,5.0,92,0.00,,,0.00,0,Wunderground v.1.15,2013-09-12 05:42:00,
2013-09-12 00:47:00,71.6,69.2,30.05,WSW,243,4.0,5.0,92,0.00,,,0.00,0,Wunderground v.1.15,2013-09-12 05:47:00,
2013-09-12 00:52:00,71.6,69.2,30.05,West,267,4.0,4.0,92,0.00,,,0.00,0,Wunderground v.1.15,2013-09-12 05:52:00,
2013-09-12 00:57:00,71.6,69.2,30.05,WSW,248,4.0,4.0,92,0.00,,,0.00,0,Wunderground v.1.15,2013-09-12 05:57:00,
2013-09-12 01:02:00,71.5,69.1,30.05,WSW,244,4.0,4.0,92,0.00,,,0.00,0,Wunderground v.1.15,2013-09-12 06:02:00,
2013-09-12 01:08:00,71.5,68.7,30.05,West,259,4.0,6.0,91,0.00,,,0.00,0,Wunderground v.1.15,2013-09-12 06:08:00,
2013-09-12 01:13:00,71.4,68.6,30.05,West,279,4.0,6.0,91,0.00,,,0.00,0,Wunderground v.1.15,2013-09-12 06:13:00,
2013-09-12 01:19:00,71.3,68.5,30.05,WNW,286,3.0,6.0,91,0.00,,,0.00,0,Wunderground v.1.15,2013-09-12 06:19:00,
2013-09-12 01:25:00,71.2,68.4,30.05,WNW,287,3.0,4.0,91,0.00,,,0.00,0,Wunderground v.1.15,2013-09-12 06:25:00,
2013-09-12 01:31:00,71.1,68.3,30.05,WSW,256,3.0,3.0,91,0.00,,,0.00,0,Wunderground v.1.15,2013-09-12 06:31:00,
2013-09-12 01:36:00,71.0,68.2,30.05,West,266,4.0,6.0,91,0.00,,,0.00,0,Wunderground v.1.15,2013-09-12 06:36:00,
2013-09-12 01:41:00,70.8,68.0,30.05,WSW,250,4.0,5.0,91,0.00,,,0.00,0,Wunderground v.1.15,2013-09-12 06:41:00,
2013-09-12 01:46:00,70.8,68.0,30.06,WSW,250,5.0,7.0,91,0.00,,,0.00,0,Wunderground v.1.15,2013-09-12 06:46:00,
2013-09-12 01:52:00,70.7,67.6,30.06,WSW,248,4.0,5.0,90,0.00,,,0.00,0,Wunderground v.1.15,2013-09-12 06:52:00,
2013-09-12 01:57:00,70.7,67.6,30.06,West,260,4.0,5.0,90,0.00,,,0.00,0,Wunderground v.1.15,2013-09-12 06:57:00,
2013-09-12 02:02:00,70.7,67.6,30.06,WSW,251,3.0,4.0,90,0.00,,,0.00,0,Wunderground v.1.15,2013-09-12 07:02:00,
2013-09-12 02:07:00,70.8,67.4,30.06,West,261,3.0,6.0,89,0.00,,,0.00,0,Wunderground v.1.15,2013-09-12 07:07:00,
2013-09-12 02:13:00,70.8,67.4,30.06,West,273,3.0,6.0,89,0.00,,,0.00,0,Wunderground v.1.15,2013-09-12 07:13:00,
2013-09-12 02:18:00,70.8,67.7,30.06,WNW,298,3.0,6.0,90,0.00,,,0.00,0,Wunderground v.1.15,2013-09-12 07:18:00,
2013-09-12 02:23:00,70.6,67.5,30.06,West,278,3.0,4.0,90,0.00,,,0.00,0,Wunderground v.1.15,2013-09-12 07:23:00,
2013-09-12 02:28:00,70.6,67.5,30.06,West,272,3.0,6.0,90,0.00,,,0.00,0,Wunderground v.1.15,2013-09-12 07:28:00,
2013-09-12 02:34:00,70.5,67.7,30.06,West,270,3.0,4.0,91,0.00,,,0.00,0,Wunderground v.1.15,2013-09-12 07:34:00,
2013-09-12 02:40:00,70.4,67.6,30.06,WNW,291,4.0,4.0,91,0.00,,,0.00,0,Wunderground v.1.15,2013-09-12 07:40:00,
2013-09-12 02:46:00,70.4,67.6,30.06,West,281,4.0,5.0,91,0.00,,,0.00,0,Wunderground v.1.15,2013-09-12 07:46:00,
2013-09-12 02:52:00,70.3,67.5,30.06,WNW,297,4.0,4.0,91,0.00,,,0.00,0,Wunderground v.1.15,2013-09-12 07:52:00,
2013-09-12 02:57:00,70.2,67.8,30.07,WNW,291,3.0,4.0,92,0.00,,,0.00,0,Wunderground v.1.15,2013-09-12 07:57:00,
2013-09-12 03:03:00,70.1,67.7,30.07,WNW,285,3.0,7.0,92,0.00,,,0.00,0,Wunderground v.1.15,2013-09-12 08:03:00,
2013-09-12 03:08:00,70.1,67.7,30.07,WNW,288,3.0,7.0,92,0.00,,,0.00,0,Wunderground v.1.15,2013-09-12 08:08:00,
2013-09-12 03:13:00,70.1,67.7,30.07,WSW,257,4.0,7.0,92,0.00,,,0.00,0,Wunderground v.1.15,2013-09-12 08:13:00,
2013-09-12 03:23:00,70.0,67.6,30.07,West,273,3.0,3.0,92,0.00,,,0.00,0,Wunderground v.1.15,2013-09-12 08:23:00,
2013-09-12 03:29:00,69.8,67.4,30.07,West,269,3.0,4.0,92,0.00,,,0.00,0,Wunderground v.1.15,2013-09-12 08:29:00,
2013-09-12 03:34:00,69.6,67.5,30.07,West,261,2.0,3.0,93,0.00,,,0.00,0,Wunderground v.1.15,2013-09-12 08:34:00,
2013-09-12 03:39:00,69.5,67.4,30.06,WSW,250,2.0,4.0,93,0.00,,,0.00,0,Wunderground v.1.15,2013-09-12 08:39:00,
2013-09-12 03:44:00,69.3,67.2,30.06,SW,225,3.0,5.0,93,0.00,,,0.00,0,Wunderground v.1.15,2013-09-12 08:44:00,
2013-09-12 03:50:00,69.3,67.2,30.06,SW,227,3.0,5.0,93,0.00,,,0.00,0,Wunderground v.1.15,2013-09-12 08:50:00,
2013-09-12 03:55:00,69.2,67.1,30.06,WSW,242,3.0,4.0,93,0.00,,,0.00,0,Wunderground v.1.15,2013-09-12 08:55:00,
2013-09-12 04:00:00,69.1,67.0,30.06,SW,236,3.0,3.0,93,0.00,,,0.00,0,Wunderground v.1.15,2013-09-12 09:00:00,
2013-09-12 04:05:00,69.0,67.2,30.06,WSW,239,3.0,4.0,94,0.00,,,0.00,0,Wunderground v.1.15,2013-09-12 09:05:00,
2013-09-12 04:10:00,68.7,66.9,30.06,WSW,240,3.0,3.0,94,0.00,,,0.00,0,Wunderground v.1.15,2013-09-12 09:10:00,
2013-09-12 04:16:00,68.5,66.7,30.06,WSW,240,3.0,4.0,94,0.00,,,0.00,0,Wunderground v.1.15,2013-09-12 09:16:00,
2013-09-12 04:22:00,68.3,66.5,30.05,SW,236,2.0,2.0,94,0.00,,,0.00,0,Wunderground v.1.15,2013-09-12 09:22:00,
2013-09-12 04:27:00,68.2,66.7,30.05,WSW,244,2.0,2.0,95,0.00,,,0.00,0,Wunderground v.1.15,2013-09-12 09:27:00,
2013-09-12 04:32:00,68.1,66.6,30.05,West,277,2.0,2.0,95,0.00,,,0.00,0,Wunderground v.1.15,2013-09-12 09:32:00,
2013-09-12 04:37:00,68.0,66.5,30.06,West,277,2.0,2.0,95,0.00,,,0.00,0,Wunderground v.1.15,2013-09-12 09:37:00,
2013-09-12 04:42:00,68.0,66.5,30.06,NW,308,2.0,2.0,95,0.00,,,0.00,0,Wunderground v.1.15,2013-09-12 09:42:00,
2013-09-12 04:47:00,67.9,66.4,30.06,NNW,346,2.0,4.0,95,0.00,,,0.00,0,Wunderground v.1.15,2013-09-12 09:47:00,
2013-09-12 04:53:00,67.8,66.3,30.07,North,350,4.0,6.0,95,0.00,,,0.00,0,Wunderground v.1.15,2013-09-12 09:53:00,
2013-09-12 04:59:00,67.7,66.2,30.07,North,355,4.0,6.0,95,0.00,,,0.00,0,Wunderground v.1.15,2013-09-12 09:59:00,
2013-09-12 05:05:00,67.7,66.5,30.07,NNW,337,4.0,5.0,96,0.00,,,0.00,0,Wunderground v.1.15,2013-09-12 10:05:00,
2013-09-12 05:10:00,67.7,66.5,30.07,NNW,343,4.0,5.0,96,0.00,,,0.00,0,Wunderground v.1.15,2013-09-12 10:10:00,
2013-09-12 05:15:00,67.7,66.5,30.07,NNW,327,4.0,5.0,96,0.00,,,0.00,0,Wunderground v.1.15,2013-09-12 10:15:00,
2013-09-12 05:20:00,67.7,66.2,30.08,NNW,343,3.0,4.0,95,0.00,,,0.00,0,Wunderground v.1.15,2013-09-12 10:20:00,
2013-09-12 05:25:00,67.7,66.2,30.08,NW,323,3.0,4.0,95,0.00,,,0.00,0,Wunderground v.1.15,2013-09-12 10:25:00,
2013-09-12 05:30:00,67.5,66.0,30.08,North,355,3.0,4.0,95,0.00,,,0.00,0,Wunderground v.1.15,2013-09-12 10:30:00,
2013-09-12 05:36:00,67.4,65.9,30.07,NNW,345,3.0,5.0,95,0.00,,,0.00,0,Wunderground v.1.15,2013-09-12 10:36:00,
2013-09-12 05:42:00,67.3,65.8,30.07,North,355,3.0,4.0,95,0.00,,,0.00,0,Wunderground v.1.15,2013-09-12 10:42:00,
2013-09-12 05:47:00,67.1,65.3,30.07,North,355,4.0,5.0,94,0.00,,,0.00,0,Wunderground v.1.15,2013-09-12 10:47:00,
2013-09-12 05:52:00,67.3,65.5,30.07,NNE,24,5.0,5.0,94,0.00,,,0.00,0,Wunderground v.1.15,2013-09-12 10:52:00,
2013-09-12 05:58:00,67.4,65.3,30.07,NNE,24,4.0,5.0,93,0.00,,,0.00,0,Wunderground v.1.15,2013-09-12 10:58:00,
2013-09-12 06:04:00,67.3,65.2,30.07,NNE,19,4.0,4.0,93,0.00,,,0.00,0,Wunderground v.1.15,2013-09-12 11:04:00,
2013-09-12 06:09:00,67.2,65.1,30.08,NNE,21,4.0,5.0,93,0.00,,,0.00,0,Wunderground v.1.15,2013-09-12 11:09:00,
2013-09-12 06:14:00,67.1,65.0,30.08,NE,36,4.0,6.0,93,0.00,,,0.00,0,Wunderground v.1.15,2013-09-12 11:14:00,
2013-09-12 06:19:00,66.9,64.8,30.08,North,355,4.0,6.0,93,0.00,,,0.00,0,Wunderground v.1.15,2013-09-12 11:19:00,
2013-09-12 06:25:00,66.6,64.5,30.08,NNE,33,3.0,4.0,93,0.00,,,0.00,0,Wunderground v.1.15,2013-09-12 11:25:00,
2013-09-12 06:31:00,66.4,64.3,30.08,NE,43,3.0,4.0,93,0.00,,,0.00,0,Wunderground v.1.15,2013-09-12 11:31:00,
2013-09-12 06:37:00,66.4,64.0,30.08,NE,38,3.0,4.0,92,0.00,,,0.00,0,Wunderground v.1.15,2013-09-12 11:37:00,
2013-09-12 06:42:00,66.5,64.1,30.08,NE,44,3.0,4.0,92,0.00,,,0.00,0,Wunderground v.1.15,2013-09-12 11:42:00,
2013-09-12 06:47:00,66.5,63.8,30.08,NE,51,3.0,5.0,91,0.00,,,0.00,0,Wunderground v.1.15,2013-09-12 11:47:00,
2013-09-12 06:52:00,66.5,63.5,30.08,NE,46,4.0,5.0,90,0.00,,,0.00,0,Wunderground v.1.15,2013-09-12 11:52:00,
2013-09-12 06:57:00,66.4,63.1,30.08,NE,37,4.0,5.0,89,0.00,,,0.00,0,Wunderground v.1.15,2013-09-12 11:57:00,
2013-09-12 07:02:00,66.2,62.5,30.09,NE,34,4.0,5.0,88,0.00,,,0.00,0,Wunderground v.1.15,2013-09-12 12:02:00,
2013-09-12 07:08:00,66.3,62.0,30.09,NE,50,4.0,6.0,86,0.00,,,0.00,5,Wunderground v.1.15,2013-09-12 12:08:00,
2013-09-12 07:14:00,66.1,61.8,30.09,NE,45,4.0,6.0,86,0.00,,,0.00,9,Wunderground v.1.15,2013-09-12 12:14:00,
2013-09-12 07:19:00,66.0,61.0,30.09,NE,46,4.0,11.0,84,0.00,,,0.00,11,Wunderground v.1.15,2013-09-12 12:19:00,
2013-09-12 07:24:00,66.0,60.3,30.10,NNE,32,6.0,9.0,82,0.00,,,0.00,12,Wunderground v.1.15,2013-09-12 12:24:00,
2013-09-12 07:29:00,65.9,60.2,30.10,NE,50,6.0,9.0,82,0.00,,,0.00,14,Wunderground v.1.15,2013-09-12 12:29:00,
2013-09-12 07:34:00,65.9,60.2,30.10,NE,42,5.0,6.0,82,0.00,,,0.00,19,Wunderground v.1.15,2013-09-12 12:34:00,
2013-09-12 07:39:00,66.0,60.0,30.10,NNE,20,5.0,9.0,81,0.00,,,0.00,23,Wunderground v.1.15,2013-09-12 12:39:00,
2013-09-12 07:45:00,65.9,59.6,30.10,ENE,59,6.0,8.0,80,0.00,,,0.00,26,Wunderground v.1.15,2013-09-12 12:45:00,
2013-09-12 07:51:00,66.0,59.7,30.11,NE,36,6.0,6.0,80,0.00,,,0.00,60,Wunderground v.1.15,2013-09-12 12:51:00,
2013-09-12 07:56:00,66.2,59.5,30.11,NNE,26,6.0,6.0,79,0.00,,,0.00,54,Wunderground v.1.15,2013-09-12 12:56:00,
2013-09-12 08:02:00,66.4,59.3,30.11,NE,39,5.0,6.0,78,0.00,,,0.00,60,Wunderground v.1.15,2013-09-12 13:02:00,
2013-09-12 08:07:00,66.5,59.1,30.11,NE,44,5.0,6.0,77,0.00,,,0.00,97,Wunderground v.1.15,2013-09-12 13:07:00,
2013-09-12 08:12:00,66.6,59.2,30.11,NE,52,5.0,10.0,77,0.00,,,0.00,139,Wunderground v.1.15,2013-09-12 13:12:00,
2013-09-12 08:17:00,66.8,59.0,30.12,NE,52,6.0,12.0,76,0.00,,,0.00,158,Wunderground v.1.15,2013-09-12 13:17:00,
2013-09-12 08:22:00,67.0,58.4,30.12,NNE,19,7.0,10.0,74,0.00,,,0.00,176,Wunderground v.1.15,2013-09-12 13:22:00,
2013-09-12 08:27:00,67.2,58.6,30.12,NE,44,7.0,10.0,74,0.00,,,0.00,195,Wunderground v.1.15,2013-09-12 13:27:00,
2013-09-12 08:32:00,67.4,58.4,30.12,NE,49,7.0,10.0,73,0.00,,,0.00,213,Wunderground v.1.15,2013-09-12 13:32:00,
2013-09-12 08:37:00,67.4,58.1,30.12,NE,48,8.0,11.0,72,0.00,,,0.00,230,Wunderground v.1.15,2013-09-12 13:37:00,
2013-09-12 08:43:00,67.6,57.1,30.12,NE,45,9.0,13.0,69,0.00,,,0.00,248,Wunderground v.1.15,2013-09-12 13:43:00,
2013-09-12 08:48:00,67.7,58.0,30.13,NE,55,10.0,13.0,71,0.00,,,0.00,262,Wunderground v.1.15,2013-09-12 13:48:00,
2013-09-12 08:53:00,67.8,56.4,30.13,NE,51,10.0,16.0,67,0.00,,,0.00,278,Wunderground v.1.15,2013-09-12 13:53:00,
2013-09-12 08:58:00,68.0,56.6,30.13,NE,52,10.0,16.0,67,0.00,,,0.00,292,Wunderground v.1.15,2013-09-12 13:58:00,
2013-09-12 09:04:00,68.3,56.5,30.13,NE,56,10.0,13.0,66,0.00,,,0.00,311,Wunderground v.1.15,2013-09-12 14:04:00,
2013-09-12 09:09:00,68.6,56.4,30.13,NE,51,10.0,15.0,65,0.00,,,0.00,327,Wunderground v.1.15,2013-09-12 14:09:00,
2013-09-12 09:14:00,68.8,56.1,30.13,NE,36,9.0,13.0,64,0.00,,,0.00,341,Wunderground v.1.15,2013-09-12 14:14:00,
2013-09-12 09:19:00,69.1,56.8,30.13,NE,39,8.0,13.0,65,0.00,,,0.00,359,Wunderground v.1.15,2013-09-12 14:19:00,
2013-09-12 09:25:00,69.4,56.3,30.13,NE,51,8.0,11.0,63,0.00,,,0.00,378,Wunderground v.1.15,2013-09-12 14:25:00,
2013-09-12 09:31:00,69.7,56.5,30.14,NNE,33,10.0,10.0,63,0.00,,,0.00,392,Wunderground v.1.15,2013-09-12 14:31:00,
2013-09-12 09:36:00,70.1,56.0,30.14,NNE,30,9.0,10.0,61,0.00,,,0.00,404,Wunderground v.1.15,2013-09-12 14:36:00,
2013-09-12 09:41:00,70.3,56.2,30.14,NNE,18,8.0,8.0,61,0.00,,,0.00,420,Wunderground v.1.15,2013-09-12 14:41:00,
2013-09-12 09:46:00,70.4,55.4,30.14,NE,34,10.0,12.0,59,0.00,,,0.00,434,Wunderground v.1.15,2013-09-12 14:46:00,
2013-09-12 09:51:00,70.6,56.5,30.14,NE,37,10.0,10.0,61,0.00,,,0.00,448,Wunderground v.1.15,2013-09-12 14:51:00,
2013-09-12 09:57:00,71.0,56.4,30.15,ENE,74,9.0,12.0,60,0.00,,,0.00,466,Wunderground v.1.15,2013-09-12 14:57:00,
2013-09-12 10:02:00,71.5,57.3,30.15,NNE,30,8.0,9.0,61,0.00,,,0.00,480,Wunderground v.1.15,2013-09-12 15:02:00,
2013-09-12 10:07:00,71.6,56.5,30.15,NE,44,9.0,12.0,59,0.00,,,0.00,492,Wunderground v.1.15,2013-09-12 15:07:00,
2013-09-12 10:13:00,71.8,57.2,30.15,NE,50,9.0,12.0,60,0.00,,,0.00,508,Wunderground v.1.15,2013-09-12 15:13:00,
2013-09-12 10:19:00,71.7,56.6,30.15,NE,44,10.0,13.0,59,0.00,,,0.00,524,Wunderground v.1.15,2013-09-12 15:19:00,
2013-09-12 10:24:00,71.9,57.3,30.15,NE,40,9.0,11.0,60,0.00,,,0.00,538,Wunderground v.1.15,2013-09-12 15:24:00,
2013-09-12 10:30:00,72.1,57.4,30.16,NNE,18,8.0,10.0,60,0.00,,,0.00,552,Wunderground v.1.15,2013-09-12 15:30:00,
2013-09-12 10:35:00,72.4,57.7,30.16,NE,51,8.0,10.0,60,0.00,,,0.00,563,Wunderground v.1.15,2013-09-12 15:35:00,
2013-09-12 10:40:00,72.3,57.2,30.16,NNE,24,9.0,9.0,59,0.00,,,0.00,577,Wunderground v.1.15,2013-09-12 15:40:00,
2013-09-12 10:45:00,72.5,55.9,30.16,NNE,30,9.0,11.0,56,0.00,,,0.00,591,Wunderground v.1.15,2013-09-12 15:45:00,
2013-09-12 10:50:00,72.8,57.2,30.16,NE,38,8.0,8.0,58,0.00,,,0.00,601,Wunderground v.1.15,2013-09-12 15:50:00,
2013-09-12 10:55:00,73.0,58.8,30.16,ENE,71,8.0,10.0,61,0.00,,,0.00,612,Wunderground v.1.15,2013-09-12 15:55:00,
2013-09-12 11:01:00,73.4,57.2,30.16,ENE,61,8.0,8.0,57,0.00,,,0.00,626,Wunderground v.1.15,2013-09-12 16:01:00,
2013-09-12 11:07:00,73.4,57.2,30.16,NE,48,8.0,10.0,57,0.00,,,0.00,636,Wunderground v.1.15,2013-09-12 16:07:00,
2013-09-12 11:12:00,73.6,57.4,30.16,ENE,71,7.0,9.0,57,0.00,,,0.00,647,Wunderground v.1.15,2013-09-12 16:12:00,
2013-09-12 11:17:00,73.9,58.7,30.16,NE,44,8.0,13.0,59,0.00,,,0.00,657,Wunderground v.1.15,2013-09-12 16:17:00,
2013-09-12 11:23:00,74.2,57.5,30.16,NE,55,9.0,11.0,56,0.00,,,0.00,668,Wunderground v.1.15,2013-09-12 16:23:00,
2013-09-12 11:29:00,74.4,56.7,30.16,NE,34,8.0,11.0,54,0.00,,,0.00,679,Wunderground v.1.15,2013-09-12 16:29:00,
2013-09-12 11:35:00,74.3,58.1,30.16,NE,34,10.0,12.0,57,0.00,,,0.00,687,Wunderground v.1.15,2013-09-12 16:35:00,
2013-09-12 11:40:00,74.5,58.8,30.16,NNE,32,10.0,10.0,58,0.00,,,0.00,700,Wunderground v.1.15,2013-09-12 16:40:00,
2013-09-12 11:45:00,74.5,55.7,30.17,NE,39,9.0,13.0,52,0.00,,,0.00,707,Wunderground v.1.15,2013-09-12 16:45:00,
2013-09-12 11:50:00,74.6,57.9,30.16,ENE,62,9.0,9.0,56,0.00,,,0.00,710,Wunderground v.1.15,2013-09-12 16:50:00,
2013-09-12 11:56:00,74.9,56.6,30.16,NNE,23,9.0,13.0,53,0.00,,,0.00,722,Wunderground v.1.15,2013-09-12 16:56:00,
2013-09-12 12:02:00,75.1,55.2,30.16,NNE,22,9.0,10.0,50,0.00,,,0.00,729,Wunderground v.1.15,2013-09-12 17:02:00,
2013-09-12 12:07:00,75.3,57.0,30.16,NNE,30,9.0,10.0,53,0.00,,,0.00,737,Wunderground v.1.15,2013-09-12 17:07:00,
2013-09-12 12:12:00,75.7,56.8,30.16,ENE,57,8.0,9.0,52,0.00,,,0.00,744,Wunderground v.1.15,2013-09-12 17:12:00,
2013-09-12 12:17:00,75.6,58.3,30.16,NNE,33,9.0,12.0,55,0.00,,,0.00,752,Wunderground v.1.15,2013-09-12 17:17:00,
2013-09-12 12:23:00,75.5,57.7,30.16,ENE,76,7.0,8.0,54,0.00,,,0.00,758,Wunderground v.1.15,2013-09-12 17:23:00,
2013-09-12 12:28:00,76.0,58.2,30.16,NE,54,6.0,9.0,54,0.00,,,0.00,761,Wunderground v.1.15,2013-09-12 17:28:00,
2013-09-12 12:34:00,75.7,59.4,30.16,ENE,73,6.0,11.0,57,0.00,,,0.00,772,Wunderground v.1.15,2013-09-12 17:34:00,
2013-09-12 12:39:00,76.3,57.4,30.16,NNE,21,6.0,11.0,52,0.00,,,0.00,777,Wunderground v.1.15,2013-09-12 17:39:00,
2013-09-12 12:44:00,76.3,57.4,30.16,NNW,346,6.0,10.0,52,0.00,,,0.00,782,Wunderground v.1.15,2013-09-12 17:44:00,
2013-09-12 12:49:00,76.2,57.3,30.16,NNE,32,9.0,10.0,52,0.00,,,0.00,786,Wunderground v.1.15,2013-09-12 17:49:00,
2013-09-12 12:54:00,76.0,56.0,30.16,NNE,20,11.0,16.0,50,0.00,,,0.00,786,Wunderground v.1.15,2013-09-12 17:54:00,
2013-09-12 13:00:00,75.6,56.7,30.16,NNE,15,13.0,13.0,52,0.00,,,0.00,788,Wunderground v.1.15,2013-09-12 18:00:00,
2013-09-12 13:06:00,76.0,56.0,30.16,North,5,11.0,15.0,50,0.00,,,0.00,789,Wunderground v.1.15,2013-09-12 18:06:00,
2013-09-12 13:12:00,75.9,57.0,30.16,NNE,30,10.0,11.0,52,0.00,,,0.00,786,Wunderground v.1.15,2013-09-12 18:12:00,
2013-09-12 13:17:00,76.1,55.5,30.15,NE,37,10.0,11.0,49,0.00,,,0.00,788,Wunderground v.1.15,2013-09-12 18:17:00,
2013-09-12 13:22:00,76.6,58.2,30.15,NE,39,8.0,11.0,53,0.00,,,0.00,788,Wunderground v.1.15,2013-09-12 18:22:00,
2013-09-12 13:27:00,76.2,56.2,30.15,North,10,8.0,11.0,50,0.00,,,0.00,788,Wunderground v.1.15,2013-09-12 18:27:00,
2013-09-12 13:32:00,76.7,57.2,30.15,East,95,7.0,9.0,51,0.00,,,0.00,788,Wunderground v.1.15,2013-09-12 18:32:00,
2013-09-12 13:38:00,77.1,55.9,30.15,North,355,7.0,14.0,48,0.00,,,0.00,749,Wunderground v.1.15,2013-09-12 18:38:00,
2013-09-12 13:44:00,77.2,57.7,30.15,NE,35,10.0,15.0,51,0.00,,,0.00,786,Wunderground v.1.15,2013-09-12 18:44:00,
2013-09-12 13:50:00,77.1,54.7,30.14,North,355,10.0,12.0,46,0.00,,,0.00,784,Wunderground v.1.15,2013-09-12 18:50:00,
2013-09-12 13:56:00,77.0,56.4,30.14,East,96,9.0,15.0,49,0.00,,,0.00,777,Wunderground v.1.15,2013-09-12 18:56:00,
2013-09-12 14:02:00,77.5,58.5,30.14,NNE,32,6.0,10.0,52,0.00,,,0.00,777,Wunderground v.1.15,2013-09-12 19:02:00,
2013-09-12 14:08:00,77.2,56.6,30.14,NNE,15,6.0,10.0,49,0.00,,,0.00,775,Wunderground v.1.15,2013-09-12 19:08:00,
2013-09-12 14:13:00,77.1,55.3,30.14,North,355,8.0,10.0,47,0.00,,,0.00,770,Wunderground v.1.15,2013-09-12 19:13:00,
2013-09-12 14:18:00,77.3,55.5,30.14,NNE,24,8.0,13.0,47,0.00,,,0.00,763,Wunderground v.1.15,2013-09-12 19:18:00,
2013-09-12 14:23:00,77.1,55.3,30.14,NE,45,9.0,13.0,47,0.00,,,0.00,758,Wunderground v.1.15,2013-09-12 19:23:00,
2013-09-12 14:28:00,77.2,56.6,30.14,ENE,62,8.0,13.0,49,0.00,,,0.00,756,Wunderground v.1.15,2013-09-12 19:28:00,
2013-09-12 14:34:00,77.6,57.5,30.14,NE,40,5.0,9.0,50,0.00,,,0.00,751,Wunderground v.1.15,2013-09-12 19:34:00,
2013-09-12 14:40:00,77.6,58.0,30.13,NE,51,6.0,6.0,51,0.00,,,0.00,728,Wunderground v.1.15,2013-09-12 19:40:00,
2013-09-12 14:45:00,78.0,58.9,30.13,ESE,114,5.0,7.0,52,0.00,,,0.00,738,Wunderground v.1.15,2013-09-12 19:45:00,
2013-09-12 14:50:00,77.6,55.8,30.13,NNE,24,6.0,6.0,47,0.00,,,0.00,640,Wunderground v.1.15,2013-09-12 19:50:00,
2013-09-12 14:55:00,77.7,58.7,30.12,East,82,6.0,6.0,52,0.00,,,0.00,707,Wunderground v.1.15,2013-09-12 19:55:00,
2013-09-12 15:01:00,77.8,56.0,30.12,NNE,16,7.0,12.0,47,0.00,,,0.00,721,Wunderground v.1.15,2013-09-12 20:01:00,
2013-09-12 15:06:00,77.5,55.7,30.12,NE,50,8.0,12.0,47,0.00,,,0.00,698,Wunderground v.1.15,2013-09-12 20:06:00,
2013-09-12 15:11:00,78.0,54.9,30.12,NNW,339,7.0,9.0,45,0.00,,,0.00,717,Wunderground v.1.15,2013-09-12 20:11:00,
2013-09-12 15:16:00,77.7,52.8,30.12,NNE,29,8.0,10.0,42,0.00,,,0.00,673,Wunderground v.1.15,2013-09-12 20:16:00,
2013-09-12 15:22:00,77.8,55.4,30.12,NE,53,5.0,10.0,46,0.00,,,0.00,612,Wunderground v.1.15,2013-09-12 20:22:00,
2013-09-12 15:27:00,77.8,56.0,30.12,ENE,62,6.0,10.0,47,0.00,,,0.00,566,Wunderground v.1.15,2013-09-12 20:27:00,
2013-09-12 15:32:00,77.2,54.8,30.12,NNE,19,8.0,10.0,46,0.00,,,0.00,499,Wunderground v.1.15,2013-09-12 20:32:00,
2013-09-12 15:38:00,77.5,56.8,30.12,ENE,74,7.0,10.0,49,0.00,,,0.00,554,Wunderground v.1.15,2013-09-12 20:38:00,
2013-09-12 15:44:00,77.1,54.7,30.12,NNE,28,8.0,14.0,46,0.00,,,0.00,517,Wunderground v.1.15,2013-09-12 20:44:00,
2013-09-12 15:50:00,77.5,55.1,30.11,NE,44,8.0,8.0,46,0.00,,,0.00,598,Wunderground v.1.15,2013-09-12 20:50:00,
2013-09-12 15:56:00,77.5,53.9,30.11,NNE,24,8.0,13.0,44,0.00,,,0.00,536,Wunderground v.1.15,2013-09-12 20:56:00,
2013-09-12 16:02:00,77.4,56.7,30.11,NNE,24,7.0,9.0,49,0.00,,,0.00,599,Wunderground v.1.15,2013-09-12 21:02:00,
2013-09-12 16:07:00,77.6,55.2,30.11,NNE,13,6.0,10.0,46,0.00,,,0.00,573,Wunderground v.1.15,2013-09-12 21:07:00,
2013-09-12 16:12:00,77.9,56.0,30.11,NNE,24,5.0,9.0,47,0.00,,,0.00,452,Wunderground v.1.15,2013-09-12 21:12:00,
2013-09-12 16:17:00,77.7,56.4,30.11,NE,37,5.0,12.0,48,0.00,,,0.00,603,Wunderground v.1.15,2013-09-12 21:17:00,
2013-09-12 16:22:00,77.7,55.3,30.11,NNW,343,8.0,10.0,46,0.00,,,0.00,596,Wunderground v.1.15,2013-09-12 21:22:00,
2013-09-12 16:27:00,77.6,54.6,30.11,NNE,27,9.0,14.0,45,0.00,,,0.00,555,Wunderground v.1.15,2013-09-12 21:27:00,
2013-09-12 16:33:00,77.6,54.6,30.10,NNE,22,7.0,12.0,45,0.00,,,0.00,536,Wunderground v.1.15,2013-09-12 21:33:00,
2013-09-12 16:39:00,77.4,52.5,30.10,NE,42,7.0,12.0,42,0.00,,,0.00,439,Wunderground v.1.15,2013-09-12 21:39:00,
2013-09-12 16:45:00,77.0,53.4,30.10,North,355,8.0,11.0,44,0.00,,,0.00,468,Wunderground v.1.15,2013-09-12 21:45:00,
2013-09-12 16:51:00,77.2,53.6,30.10,NNE,32,8.0,8.0,44,0.00,,,0.00,506,Wunderground v.1.15,2013-09-12 21:51:00,
2013-09-12 16:56:00,77.5,55.7,30.10,NE,39,6.0,9.0,47,0.00,,,0.00,448,Wunderground v.1.15,2013-09-12 21:56:00,
2013-09-12 17:01:00,77.5,52.6,30.10,NNE,14,6.0,11.0,42,0.00,,,0.00,417,Wunderground v.1.15,2013-09-12 22:01:00,
2013-09-12 17:06:00,76.9,52.7,30.10,NNE,23,9.0,11.0,43,0.00,,,0.00,311,Wunderground v.1.15,2013-09-12 22:06:00,
2013-09-12 17:12:00,76.5,51.0,30.10,NNW,346,9.0,9.0,41,0.00,,,0.00,323,Wunderground v.1.15,2013-09-12 22:12:00,
2013-09-12 17:17:00,76.6,53.7,30.10,NE,42,8.0,9.0,45,0.00,,,0.00,418,Wunderground v.1.15,2013-09-12 22:17:00,
2013-09-12 17:22:00,76.9,51.4,30.10,North,360,8.0,9.0,41,0.00,,,0.00,406,Wunderground v.1.15,2013-09-12 22:22:00,
2013-09-12 17:27:00,76.9,52.1,30.10,NNE,30,7.0,10.0,42,0.00,,,0.00,339,Wunderground v.1.15,2013-09-12 22:27:00,
2013-09-12 17:32:00,76.6,51.1,30.10,NE,46,8.0,11.0,41,0.00,,,0.00,369,Wunderground v.1.15,2013-09-12 22:32:00,
2013-09-12 17:37:00,76.2,51.4,30.10,NE,36,9.0,14.0,42,0.00,,,0.00,271,Wunderground v.1.15,2013-09-12 22:37:00,
2013-09-12 17:43:00,76.3,50.9,30.10,NNE,22,8.0,9.0,41,0.00,,,0.00,246,Wunderground v.1.15,2013-09-12 22:43:00,
2013-09-12 17:48:00,75.8,52.3,30.10,NNE,19,7.0,11.0,44,0.00,,,0.00,281,Wunderground v.1.15,2013-09-12 22:48:00,
2013-09-12 17:54:00,75.8,52.3,30.10,NNE,24,8.0,11.0,44,0.00,,,0.00,276,Wunderground v.1.15,2013-09-12 22:54:00,
2013-09-12 18:00:00,75.8,51.7,30.10,NNE,30,8.0,8.0,43,0.00,,,0.00,276,Wunderground v.1.15,2013-09-12 23:00:00,
2013-09-12 18:05:00,75.8,52.3,30.10,North,360,8.0,11.0,44,0.00,,,0.00,251,Wunderground v.1.15,2013-09-12 23:05:00,
2013-09-12 18:10:00,75.6,52.1,30.10,North,10,8.0,8.0,44,0.00,,,0.00,213,Wunderground v.1.15,2013-09-12 23:10:00,
2013-09-12 18:16:00,75.3,52.5,30.11,NNE,26,8.0,11.0,45,0.00,,,0.00,162,Wunderground v.1.15,2013-09-12 23:16:00,
2013-09-12 18:22:00,74.5,52.9,30.11,NE,55,9.0,11.0,47,0.00,,,0.00,81,Wunderground v.1.15,2013-09-12 23:22:00,
2013-09-12 18:28:00,74.0,52.5,30.11,NE,36,7.0,11.0,47,0.00,,,0.00,72,Wunderground v.1.15,2013-09-12 23:28:00,
2013-09-12 18:34:00,74.1,53.2,30.11,NE,46,7.0,10.0,48,0.00,,,0.00,142,Wunderground v.1.15,2013-09-12 23:34:00,
2013-09-12 18:39:00,74.2,52.7,30.11,NE,46,7.0,10.0,47,0.00,,,0.00,125,Wunderground v.1.15,2013-09-12 23:39:00,
2013-09-12 18:44:00,74.1,53.7,30.11,NNE,30,6.0,7.0,49,0.00,,,0.00,104,Wunderground v.1.15,2013-09-12 23:44:00,
2013-09-12 18:49:00,73.8,52.3,30.11,NNE,15,5.0,10.0,47,0.00,,,0.00,91,Wunderground v.1.15,2013-09-12 23:49:00,
2013-09-12 18:54:00,73.5,53.2,30.11,NNE,17,6.0,9.0,49,0.00,,,0.00,72,Wunderground v.1.15,2013-09-12 23:54:00,
2013-09-12 19:00:00,73.0,52.7,30.11,NNE,19,7.0,7.0,49,0.00,,,0.00,54,Wunderground v.1.15,2013-09-13 00:00:00,
2013-09-12 19:05:00,72.4,52.7,30.11,NNE,12,6.0,7.0,50,0.00,,,0.00,19,Wunderground v.1.15,2013-09-13 00:05:00,
2013-09-12 19:10:00,72.0,52.3,30.11,North,5,6.0,6.0,50,0.00,,,0.00,16,Wunderground v.1.15,2013-09-13 00:10:00,
2013-09-12 19:16:00,72.0,51.8,30.11,NNE,26,7.0,10.0,49,0.00,,,0.00,12,Wunderground v.1.15,2013-09-13 00:16:00,
2013-09-12 19:22:00,71.2,52.1,30.11,NNE,26,6.0,6.0,51,0.00,,,0.00,9,Wunderground v.1.15,2013-09-13 00:22:00,
2013-09-12 19:28:00,70.6,52.6,30.11,North,10,6.0,10.0,53,0.00,,,0.00,5,Wunderground v.1.15,2013-09-13 00:28:00,
2013-09-12 19:34:00,69.3,52.4,30.11,NNE,20,5.0,7.0,55,0.00,,,0.00,0,Wunderground v.1.15,2013-09-13 00:34:00,
2013-09-12 19:40:00,69.2,52.3,30.11,NNW,343,4.0,8.0,55,0.00,,,0.00,0,Wunderground v.1.15,2013-09-13 00:40:00,
2013-09-12 19:46:00,68.9,52.1,30.11,North,10,5.0,8.0,55,0.00,,,0.00,0,Wunderground v.1.15,2013-09-13 00:46:00,
2013-09-12 19:52:00,68.4,52.1,30.11,North,355,5.0,5.0,56,0.00,,,0.00,0,Wunderground v.1.15,2013-09-13 00:52:00,
2013-09-12 19:57:00,67.9,52.1,30.11,North,350,4.0,5.0,57,0.00,,,0.00,0,Wunderground v.1.15,2013-09-13 00:57:00,
2013-09-12 20:02:00,67.5,52.2,30.11,North,11,4.0,4.0,58,0.00,,,0.00,0,Wunderground v.1.15,2013-09-13 01:02:00,
2013-09-12 20:07:00,67.5,52.2,30.12,North,360,3.0,4.0,58,0.00,,,0.00,0,Wunderground v.1.15,2013-09-13 01:07:00,
2013-09-12 20:12:00,67.6,51.8,30.12,North,355,3.0,3.0,57,0.00,,,0.00,0,Wunderground v.1.15,2013-09-13 01:12:00,
2013-09-12 20:18:00,67.5,52.2,30.12,NNW,328,3.0,3.0,58,0.00,,,0.00,0,Wunderground v.1.15,2013-09-13 01:18:00,
2013-09-12 20:23:00,67.2,52.4,30.12,NNW,346,3.0,4.0,59,0.00,,,0.00,0,Wunderground v.1.15,2013-09-13 01:23:00,
2013-09-12 20:28:00,67.1,52.7,30.13,NNW,346,3.0,4.0,60,0.00,,,0.00,0,Wunderground v.1.15,2013-09-13 01:28:00,
2013-09-12 20:33:00,66.5,52.6,30.13,NNW,343,3.0,4.0,61,0.00,,,0.00,0,Wunderground v.1.15,2013-09-13 01:33:00,
2013-09-12 20:38:00,66.2,52.3,30.13,NNW,346,2.0,4.0,61,0.00,,,0.00,0,Wunderground v.1.15,2013-09-13 01:38:00,
2013-09-12 20:44:00,66.2,52.8,30.13,NNW,331,2.0,3.0,62,0.00,,,0.00,0,Wunderground v.1.15,2013-09-13 01:44:00,
2013-09-12 20:50:00,66.4,52.5,30.13,NNW,348,3.0,3.0,61,0.00,,,0.00,0,Wunderground v.1.15,2013-09-13 01:50:00,
2013-09-12 20:56:00,66.9,52.6,30.13,North,355,3.0,3.0,60,0.00,,,0.00,0,Wunderground v.1.15,2013-09-13 01:56:00,
2013-09-12 21:02:00,66.4,53.0,30.13,North,355,3.0,3.0,62,0.00,,,0.00,0,Wunderground v.1.15,2013-09-13 02:02:00,
2013-09-12 21:07:00,65.3,52.8,30.13,North,351,3.0,3.0,64,0.00,,,0.00,0,Wunderground v.1.15,2013-09-13 02:07:00,
2013-09-12 21:12:00,64.2,53.0,30.13,North,360,3.0,4.0,67,0.00,,,0.00,0,Wunderground v.1.15,2013-09-13 02:12:00,
2013-09-12 21:18:00,64.2,53.0,30.13,North,360,4.0,5.0,67,0.00,,,0.00,0,Wunderground v.1.15,2013-09-13 02:18:00,
2013-09-12 21:23:00,64.8,53.6,30.13,North,350,3.0,4.0,67,0.00,,,0.00,0,Wunderground v.1.15,2013-09-13 02:23:00,
2013-09-12 21:30:00,64.7,53.1,30.13,North,5,2.0,2.0,66,0.00,,,0.00,0,Wunderground v.1.15,2013-09-13 02:30:00,
2013-09-12 21:36:00,64.6,53.4,30.13,NNE,24,3.0,4.0,67,0.00,,,0.00,0,Wunderground v.1.15,2013-09-13 02:36:00,
2013-09-12 21:41:00,64.4,53.6,30.13,NNE,26,3.0,4.0,68,0.00,,,0.00,0,Wunderground v.1.15,2013-09-13 02:41:00,
2013-09-12 21:47:00,64.6,53.8,30.13,NE,34,3.0,5.0,68,0.00,,,0.00,0,Wunderground v.1.15,2013-09-13 02:47:00,
2013-09-12 21:52:00,64.6,53.8,30.13,NNE,28,3.0,4.0,68,0.00,,,0.00,0,Wunderground v.1.15,2013-09-13 02:52:00,
2013-09-12 21:57:00,64.6,53.8,30.13,NE,38,3.0,4.0,68,0.00,,,0.00,0,Wunderground v.1.15,2013-09-13 02:57:00,
2013-09-12 22:02:00,64.4,54.0,30.13,NNE,25,3.0,4.0,69,0.00,,,0.00,0,Wunderground v.1.15,2013-09-13 03:02:00,
2013-09-12 22:07:00,64.0,53.6,30.13,NNE,29,3.0,4.0,69,0.00,,,0.00,0,Wunderground v.1.15,2013-09-13 03:07:00,
2013-09-12 22:12:00,64.2,53.8,30.13,NNE,28,3.0,3.0,69,0.00,,,0.00,0,Wunderground v.1.15,2013-09-13 03:12:00,
2013-09-12 22:17:00,64.3,53.5,30.13,NE,46,2.0,4.0,68,0.00,,,0.00,0,Wunderground v.1.15,2013-09-13 03:17:00,
2013-09-12 22:22:00,64.5,53.3,30.13,ENE,77,2.0,3.0,67,0.00,,,0.00,0,Wunderground v.1.15,2013-09-13 03:22:00,
2013-09-12 22:28:00,64.0,53.2,30.14,ENE,62,2.0,3.0,68,0.00,,,0.00,0,Wunderground v.1.15,2013-09-13 03:28:00,
2013-09-12 22:34:00,63.0,53.1,30.13,NE,42,2.0,3.0,70,0.00,,,0.00,0,Wunderground v.1.15,2013-09-13 03:34:00,
2013-09-12 22:39:00,61.9,52.8,30.14,NNE,32,2.0,3.0,72,0.00,,,0.00,0,Wunderground v.1.15,2013-09-13 03:39:00,
2013-09-12 22:45:00,62.1,53.0,30.13,NNE,30,2.0,3.0,72,0.00,,,0.00,0,Wunderground v.1.15,2013-09-13 03:45:00,
2013-09-12 22:51:00,62.3,52.8,30.13,NNE,30,2.0,2.0,71,0.00,,,0.00,0,Wunderground v.1.15,2013-09-13 03:51:00,
2013-09-12 22:56:00,61.9,52.8,30.14,NNE,26,2.0,3.0,72,0.00,,,0.00,0,Wunderground v.1.15,2013-09-13 03:56:00,
2013-09-12 23:02:00,61.8,53.1,30.14,NNE,22,2.0,3.0,73,0.00,,,0.00,0,Wunderground v.1.15,2013-09-13 04:02:00,
2013-09-12 23:05:00,61.8,53.1,30.14,NNE,19,3.0,3.0,73,0.00,,,0.00,0,Wunderground v.1.15,2013-09-13 04:05:00,
2013-09-12 23:06:00,61.8,53.1,30.14,NNE,19,3.0,3.0,73,0.00,,,0.00,0,Wunderground v.1.15,2013-09-13 04:06:00,
2013-09-12 23:08:00,61.9,53.1,30.14,NNE,25,2.0,3.0,73,0.00,,,0.00,0,Wunderground v.1.15,2013-09-13 04:08:00,
2013-09-12 23:11:00,62.1,53.0,30.14,North,10,2.0,2.0,72,0.00,,,0.00,0,Wunderground v.1.15,2013-09-13 04:11:00,
2013-09-12 23:16:00,61.6,52.9,30.14,NNE,16,2.0,3.0,73,0.00,,,0.00,0,Wunderground v.1.15,2013-09-13 04:16:00,
2013-09-12 23:18:00,61.6,53.2,30.14,NNE,17,2.0,3.0,74,0.00,,,0.00,0,Wunderground v.1.15,2013-09-13 04:18:00,
2013-09-12 23:23:00,61.2,52.8,30.14,NNE,17,2.0,2.0,74,0.00,,,0.00,0,Wunderground v.1.15,2013-09-13 04:23:00,
2013-09-12 23:28:00,60.7,52.7,30.14,NNE,17,1.0,2.0,75,0.00,,,0.00,0,Wunderground v.1.15,2013-09-13 04:28:00,
2013-09-12 23:33:00,60.5,52.5,30.14,NNE,17,1.0,2.0,75,0.00,,,0.00,0,Wunderground v.1.15,2013-09-13 04:33:00,
2013-09-12 23:38:00,60.2,52.2,30.14,NNE,17,1.0,2.0,75,0.00,,,0.00,0,Wunderground v.1.15,2013-09-13 04:38:00,
2013-09-12 23:43:00,59.9,52.7,30.14,NNE,17,1.0,2.0,77,0.00,,,0.00,0,Wunderground v.1.15,2013-09-13 04:43:00,
2013-09-12 23:48:00,60.0,52.8,30.15,NNE,26,2.0,2.0,77,0.00,,,0.00,0,Wunderground v.1.15,2013-09-13 04:48:00,
2013-09-12 23:54:00,60.2,52.6,30.15,NE,36,2.0,2.0,76,0.00,,,0.00,0,Wunderground v.1.15,2013-09-13 04:54:00,